Regional Weather Roundup
Issued by NWS

Home | Current Version | Previous Version | Graphics & Text | Print | Product List | Glossary On
Versions: 1 2 3 4 5 6 7 8 9 10 11 12 13 14 15 16 17 18 19 20 21 22 23 24 25 26 27 28 29 30 31 32 33 34 35 36 37 38 39 40 41 42 43 44 45 46 47 48 49 50
000
ASUS43 KIND 060709
RWRIN

WEATHER ROUNDUP FOR INDIANA
NATIONAL WEATHER SERVICE INDIANAPOLIS IN
300 AM EDT WED MAY 06 2015

NOTE: "FAIR" INDICATES FEW OR NO CLOUDS BELOW 12,000 FEET WITH NO
SIGNIFICANT WEATHER AND/OR OBSTRUCTIONS TO VISIBILITY.

* - STATION DOES NOT REPORT WEATHER SUCH AS PRECIPITATION OR FOG.

+ - STATION NOT QUALITY CONTROLLED BY THE NATIONAL WEATHER SERVICE.
    USE DATA WITH CAUTION...ESPECIALLY DEWPOINT AND RELATIVE
    HUMIDITY OBSERVATIONS.

INZ001>003-010>013-019-020-060800-
NORTHWEST INDIANA

CITY           SKY/WX    TMP DP  RH WIND       PRES   REMARKS
GARY /AIRPORT/ FOG       49  47  90 NW3       30.20S VSB 1/2
KNOX *+        CLOUDY    57  52  82 SE7       30.18F
LA PORTE +     CLOUDY    58  58 100 E7        30.20F FOG
MICHIGAN CITY+ CLOUDY    55  55 100 CALM      30.19F FOG
MONTICELLO +   CLEAR     59  58  99 E7        30.17F FOG
VALPARAISO     CLOUDY    57  57 100 E7        30.19F FOG

$$

LMZ046-743>745-060800-
SOUTHERN LAKE MICHIGAN

STATION/POSITION TIME  TEMP    WIND        PRES    WAVE
                       AIR SEA DIR/SP/G            HT
                 (UTC) (F)     (DEG/KT/KT) (MB)    (FT)
BURNS HARBOR     0700   52        CALM     1022.7F
MICHIGAN CITY    0700   55      90/  4/  6   N/A
5NW MICH CITY    0700   53 50   90/  4/  4   N/A     1

$$

INZ004-005-014>016-021>024-060800-
NORTH CENTRAL INDIANA

CITY           SKY/WX    TMP DP  RH WIND       PRES   REMARKS
GOSHEN         CLOUDY    54  53  97 E7        30.21F FOG
LOGANSPORT +   CLOUDY    55  54  94 E7        30.19F FOG
PERU/GRISSOM   PTCLDY    56  55  94 E5        30.18F FOG
ROCHESTER +      N/A     57  57 100 E6        30.20S FOG
SOUTH BEND     CLOUDY    56  54  93 MISG      30.21F FOG
WARSAW +       PTCLDY    54  52  94 E7        30.21F FOG

$$

INZ006>009-017-018-025>027-060800-
NORTHEAST INDIANA

CITY           SKY/WX    TMP DP  RH WIND       PRES   REMARKS
ANGOLA *+      CLOUDY    52  39  62 E8        30.22F VSB 1
AUBURN +       CLOUDY    52  50  93 E5        30.23F FOG
FORT WAYNE     CLOUDY    53  51  93 E10       30.22F FOG
HUNTINGTON +   CLOUDY    53  52  95 E6        30.21F FOG

$$

INZ028-029-035-036-043>045-051>053-060800-
WEST CENTRAL INDIANA

CITY           SKY/WX    TMP DP  RH WIND       PRES   REMARKS
CRAWFORDSVL +  CLEAR     58  49  73 S3        30.17F
GREENCASTLE +  CLEAR     61  50  67 CALM      30.19S
LAFAYETTE      CLEAR     60  59  96 E5        30.16F FOG
TERRE HAUTE    CLEAR     60  54  80 CALM      30.17F

$$

INZ030>032-037>040-046>048-054>057-064-065-060800-
CENTRAL INDIANA

CITY           SKY/WX    TMP DP  RH WIND       PRES   REMARKS
CP ATTERBURY + CLEAR     55  54  94 CALM      30.19F
FRANKFORT +    PTCLDY    60  60 100 E3        30.19F
GREENWOOD *+   CLEAR     64  52  63 CALM      30.19F
INDIANAPOLIS   MOCLDY    65  53  65 S3        30.17S
-EAGLE CREEK   PTCLDY    61  57  87 CALM      30.17F
KOKOMO *+      CLEAR     55  54  94 E7        30.19F
MARION +       CLEAR     54  52  93 E6        30.20F FOG
MT COMFORT *+  CLEAR     61  48  63 CALM      30.19S
SHELBYVILLE    CLEAR     62  54  74 S5        30.18F
ZIONSVILLE +   PTCLDY    62  54  75 CALM      30.19S

$$

INZ033-034-041-042-049-050-058-059-060800-
EAST CENTRAL INDIANA

CITY           SKY/WX    TMP DP  RH WIND       PRES   REMARKS
MUNCIE         CLEAR     55  53  93 E6        30.20F FOG

$$

INZ060-061-067>069-081>083-085>088-060800-
SOUTHWEST INDIANA

CITY           SKY/WX    TMP DP  RH WIND       PRES   REMARKS
EVANSVILLE     CLEAR     62  56  80 CALM      30.18F
HUNTINGBURG *+ CLEAR     61  52  72 CALM      30.19S
WASHINGTON +   CLEAR     60  51  71 SE3       30.17F

$$

INZ062-063-066-070>080-084-089>092-060800-
SOUTH CENTRAL AND SOUTHEAST INDIANA

CITY           SKY/WX    TMP DP  RH WIND       PRES   REMARKS
BLOOMINGTON    CLEAR     57  53  86 CALM      30.19S
MADISON *+     CLEAR     59  54  82 CALM      30.22S
NORTH VERNON + CLEAR     57  57 100 CALM      30.20F
SEYMOUR +      CLEAR     57  54  88 CALM      30.19S

$$



USA.gov is the U.S. government's official web portal to all federal, state and local government web resources and services.